When you browse on this site, cookies collect data to enhance your experience and personalize the content and advertising you see.
Visit our Privacy Policy to learn more. By continuing to use the site, you agree to this use of cookies and data.
  • en France
  • Liste des pays
  • À 7 jours
  • Température de l'eau
  • Carte météo
  • Widgets météo
  • user-avatar
    Se connecter

    Météo par heure à Encamp

    Ce jour, 21 Février, Vendredi

    Heure Température Précipitation Vent Pression Humidité
    00:00 -1°C° 0 mm 2 m/s 628 mmHg 73%
    01:00 -1°C° 0 mm 2 m/s 628 mmHg 74%
    02:00 -1°C° 0 mm 2 m/s 628 mmHg 74%
    03:00 -1°C° 0 mm 2 m/s 627 mmHg 74%
    04:00 +1°C° 0 mm 1 m/s 628 mmHg 68%
    05:00 +1°C° 0 mm 1 m/s 628 mmHg 62%
    06:00 +1°C° 0 mm 1 m/s 628 mmHg 54%
    13:00 +11°C° 0 mm 1 m/s 632 mmHg 38%
    14:00 +10°C° 0 mm 1 m/s 631 mmHg 42%
    15:00 +10°C° 0 mm 1 m/s 631 mmHg 46%
    16:00 +8°C° 0 mm 1 m/s 630 mmHg 55%
    17:00 +5°C° 0 mm 1 m/s 629 mmHg 64%
    18:00 +3°C° 0 mm 1 m/s 628 mmHg 73%
    19:00 +3°C° 0 mm 1 m/s 629 mmHg 62%
    20:00 +3°C° 0 mm 1 m/s 629 mmHg 51%
    21:00 +3°C° 0 mm 1 m/s 629 mmHg 40%
    22:00 +2°C° 0 mm 2 m/s 629 mmHg 38%
    23:00 +2°C° 0 mm 2 m/s 629 mmHg 35%

    Demain, 22 Février, Samedi

    Heure Température Précipitation Vent Pression Humidité
    00:00 +2°C° 0 mm 2 m/s 629 mmHg 32%
    01:00 +2°C° 0 mm 2 m/s 629 mmHg 30%
    02:00 +2°C° 0 mm 2 m/s 629 mmHg 28%
    03:00 +2°C° 0 mm 2 m/s 629 mmHg 26%
    04:00 +2°C° 0 mm 2 m/s 629 mmHg 25%
    05:00 +2°C° 0 mm 2 m/s 629 mmHg 24%
    06:00 +2°C° 0 mm 2 m/s 629 mmHg 22%
    07:00 +5°C° 0 mm 1 m/s 631 mmHg 24%
    08:00 +7°C° 0 mm 1 m/s 632 mmHg 26%
    09:00 +9°C° 0 mm 1 m/s 633 mmHg 28%
    10:00 +10°C° 0 mm 1 m/s 634 mmHg 27%
    11:00 +11°C° 0 mm 1 m/s 634 mmHg 27%
    12:00 +13°C° 0 mm 1 m/s 635 mmHg 26%
    13:00 +12°C° 0 mm 1 m/s 635 mmHg 29%
    14:00 +12°C° 0 mm 1 m/s 634 mmHg 31%
    15:00 +12°C° 0 mm 1 m/s 634 mmHg 34%
    16:00 +10°C° 0 mm 1 m/s 633 mmHg 45%
    17:00 +7°C° 0 mm 1 m/s 632 mmHg 55%
    18:00 +5°C° 0 mm 1 m/s 632 mmHg 66%
    19:00 +4°C° 0 mm 1 m/s 632 mmHg 59%
    20:00 +4°C° 0 mm 1 m/s 632 mmHg 52%
    21:00 +3°C° 0 mm 2 m/s 632 mmHg 45%
    22:00 +3°C° 0 mm 2 m/s 632 mmHg 41%
    23:00 +3°C° 0 mm 2 m/s 632 mmHg 36%

    Après-demain, 23 Février, Dimanche

    Heure Température Précipitation Vent Pression Humidité
    00:00 +3°C° 0 mm 2 m/s 632 mmHg 32%
    01:00 +3°C° 0 mm 2 m/s 632 mmHg 31%
    02:00 +3°C° 0 mm 2 m/s 632 mmHg 31%
    03:00 +4°C° 0 mm 1 m/s 631 mmHg 30%
    04:00 +4°C° 0 mm 1 m/s 631 mmHg 30%
    05:00 +4°C° 0 mm 1 m/s 631 mmHg 30%
    06:00 +4°C° 0 mm 1 m/s 631 mmHg 30%
    07:00 +7°C° 0 mm 1 m/s 632 mmHg 31%
    08:00 +9°C° 0 mm 1 m/s 633 mmHg 32%
    09:00 +11°C° 0 mm 1 m/s 634 mmHg 33%
    10:00 +12°C° 0 mm 1 m/s 635 mmHg 31%
    11:00 +14°C° 0 mm 1 m/s 635 mmHg 29%
    12:00 +16°C° 0 mm 1 m/s 636 mmHg 27%
    13:00 +16°C° 0 mm 1 m/s 635 mmHg 30%
    14:00 +15°C° 0 mm 1 m/s 634 mmHg 33%
    15:00 +15°C° 0 mm 1 m/s 634 mmHg 35%
    16:00 +13°C° 0 mm 1 m/s 633 mmHg 44%
    17:00 +10°C° 0 mm 1 m/s 632 mmHg 52%
    18:00 +8°C° 0 mm 1 m/s 631 mmHg 60%
    19:00 +7°C° 0 mm 1 m/s 631 mmHg 56%
    20:00 +7°C° 0 mm 1 m/s 631 mmHg 53%
    21:00 +6°C° 0 mm 1 m/s 631 mmHg 49%
    22:00 +6°C° 0 mm 1 m/s 631 mmHg 47%
    23:00 +6°C° 0 mm 1 m/s 631 mmHg 45%

    24 Février, Lundi

    Heure Température Précipitation Vent Pression Humidité
    00:00 +6°C° 0 mm 1 m/s 631 mmHg 43%
    01:00 +6°C° 0 mm 1 m/s 630 mmHg 45%
    02:00 +6°C° 0 mm 1 m/s 630 mmHg 47%
    03:00 +6°C° 0 mm 1 m/s 629 mmHg 49%
    04:00 +6°C° 0 mm 1 m/s 629 mmHg 49%
    05:00 +5°C° 0 mm 1 m/s 629 mmHg 50%
    06:00 +5°C° 0 mm 1 m/s 629 mmHg 51%
    07:00 +7°C° 0 mm 1 m/s 629 mmHg 48%
    08:00 +9°C° 0 mm 1 m/s 630 mmHg 45%
    09:00 +10°C° 0 mm 0 m/s 631 mmHg 42%
    10:00 +13°C° 0 mm 1 m/s 631 mmHg 37%
    11:00 +14°C° 0 mm 1 m/s 631 mmHg 33%
    12:00 +15°C° 0 mm 1 m/s 631 mmHg 29%
    13:00 +15°C° 0 mm 1 m/s 631 mmHg 32%
    14:00 +15°C° 0 mm 1 m/s 630 mmHg 34%
    15:00 +15°C° 0 mm 1 m/s 629 mmHg 37%
    16:00 +12°C° 0 mm 1 m/s 628 mmHg 47%
    17:00 +10°C° 0 mm 1 m/s 627 mmHg 58%
    18:00 +7°C° 0 mm 1 m/s 626 mmHg 68%
    19:00 +7°C° 0 mm 1 m/s 626 mmHg 63%
    20:00 +6°C° 0 mm 1 m/s 626 mmHg 57%
    21:00 +6°C° 0 mm 1 m/s 626 mmHg 51%
    22:00 +5°C° 0 mm 1 m/s 626 mmHg 48%
    23:00 +5°C° 0 mm 1 m/s 625 mmHg 45%

    25 Février, Mardi

    Heure Température Précipitation Vent Pression Humidité
    00:00 +5°C° 0 mm 1 m/s 625 mmHg 41%
    01:00 +3°C° 0 mm 2 m/s 625 mmHg 40%
    02:00 +3°C° 0 mm 2 m/s 625 mmHg 38%
    03:00 +3°C° 0 mm 2 m/s 624 mmHg 36%
    04:00 +2°C° 0 mm 2 m/s 624 mmHg 36%
    05:00 +2°C° 0 mm 2 m/s 624 mmHg 37%
    06:00 +2°C° 0 mm 2 m/s 624 mmHg 37%
    07:00 +5°C° 0 mm 1 m/s 625 mmHg 35%
    08:00 +6°C° 0 mm 1 m/s 625 mmHg 34%
    09:00 +8°C° 0 mm 1 m/s 626 mmHg 32%
    10:00 +8°C° 0 mm 1 m/s 626 mmHg 33%
    11:00 +9°C° 0 mm 1 m/s 626 mmHg 34%
    12:00 +9°C° 0 mm 2 m/s 626 mmHg 35%
    13:00 +8°C° 0 mm 2 m/s 626 mmHg 39%
    14:00 +8°C° 0 mm 2 m/s 625 mmHg 43%
    15:00 +7°C° 0 mm 2 m/s 625 mmHg 48%
    16:00 +6°C° 0 mm 2 m/s 624 mmHg 59%
    17:00 +4°C° 0 mm 2 m/s 623 mmHg 70%
    18:00 +2°C° 0 mm 2 m/s 623 mmHg 82%
    19:00 +2°C° 0 mm 2 m/s 623 mmHg 83%
    20:00 +1°C° 0 mm 2 m/s 623 mmHg 84%
    21:00 +1°C° 0 mm 2 m/s 623 mmHg 86%
    22:00 +1°C° 0 mm 2 m/s 623 mmHg 86%
    23:00 +1°C° 0 mm 2 m/s 623 mmHg 87%

    26 Février, Mercredi

    Heure Température Précipitation Vent Pression Humidité
    00:00 +1°C° 0 mm 2 m/s 623 mmHg 87%
    01:00 +1°C° 0 mm 2 m/s 623 mmHg 88%
    02:00 +1°C° 0 mm 2 m/s 623 mmHg 90%
    03:00 +1°C° 0 mm 2 m/s 623 mmHg 91%
    04:00 -1°C° 0.1 mm 2 m/s 623 mmHg 90%
    05:00 -1°C° 0.1 mm 2 m/s 623 mmHg 90%
    06:00 -1°C° 0.1 mm 2 m/s 623 mmHg 90%
    07:00 -1°C° 0 mm 2 m/s 623 mmHg 83%
    08:00 +1°C° 0 mm 2 m/s 624 mmHg 76%
    09:00 +2°C° 0 mm 2 m/s 624 mmHg 69%
    10:00 +3°C° 0 mm 2 m/s 625 mmHg 61%
    11:00 +4°C° 0 mm 2 m/s 625 mmHg 52%
    12:00 +6°C° 0 mm 2 m/s 625 mmHg 44%
    13:00 +6°C° 0 mm 2 m/s 625 mmHg 44%
    14:00 +6°C° 0 mm 2 m/s 625 mmHg 44%
    15:00 +5°C° 0 mm 3 m/s 624 mmHg 44%
    16:00 +3°C° 0 mm 3 m/s 624 mmHg 57%
    17:00 +2°C° 0 mm 2 m/s 623 mmHg 69%
    18:00 -1°C° 0 mm 2 m/s 623 mmHg 82%
    19:00 -2°C° 0 mm 2 m/s 623 mmHg 81%
    20:00 -2°C° 0 mm 2 m/s 623 mmHg 81%
    21:00 -3°C° 0 mm 2 m/s 624 mmHg 80%
    22:00 -3°C° 0 mm 2 m/s 624 mmHg 77%
    23:00 -3°C° 0 mm 2 m/s 624 mmHg 73%
    Voir plus